KE8AFF-13 Weather Reports


time (UTC)temp
C
wind
direction
speed
KPH
gust
KPH
rain 1hr
cm
rain 24hr
cm
rain mn
cm
humidity
%
barometer
mb
20260503022304 5 212 0.0 0.0 0.00 0.03 0.03 74 1018.3
20260503021800 5 209 0.0 1.6 0.00 0.03 0.03 74 1018.4
20260503021255 5 212 0.0 1.6 0.00 0.03 0.03 73 1018.3
20260503020754 5 218 0.0 0.0 0.00 0.03 0.03 73 1018.3
20260503020251 5 218 0.0 0.0 0.00 0.03 0.03 73 1018.3
20260503015747 5 218 0.0 0.0 0.00 0.03 0.03 72 1018.0
20260503015244 5 218 0.0 0.0 0.00 0.03 0.03 71 1018.2
20260503014740 5 218 0.0 0.0 0.00 0.03 0.03 71 1018.0
20260503014238 5 218 0.0 0.0 0.00 0.03 0.03 70 1017.9
20260503013735 5 217 0.0 0.0 0.00 0.03 0.03 70 1018.1
20260503013233 5 217 0.0 0.0 0.00 0.03 0.03 68 1018.0
20260503012730 5 219 0.0 1.6 0.00 0.03 0.03 68 1017.8
20260503012227 5 215 0.0 0.0 0.00 0.03 0.03 68 1017.9
20260503011723 6 219 0.0 1.6 0.00 0.03 0.03 68 1017.8
20260503011220 6 216 1.6 1.6 0.00 0.03 0.03 68 1018.1
20260503010716 6 219 0.0 1.6 0.00 0.03 0.03 66 1017.9
20260503010214 6 217 0.0 1.6 0.00 0.03 0.03 68 1017.9
20260503005711 6 222 0.0 1.6 0.00 0.03 0.03 67 1017.8
20260503005208 6 218 0.0 1.6 0.00 0.03 0.03 67 1017.9
20260503004705 6 216 0.0 1.6 0.00 0.03 0.03 67 1017.8
20260503004203 6 217 0.0 1.6 0.00 0.03 0.03 66 1017.8
20260503003700 6 213 1.6 1.6 0.00 0.03 0.03 66 1017.8
20260503003157 6 219 0.0 1.6 0.00 0.03 0.03 65 1017.9
20260503002653 6 222 1.6 3.2 0.00 0.03 0.03 64 1017.8
20260503002150 6 220 0.0 1.6 0.00 0.03 0.03 65 1017.7
20260503001646 6 227 0.0 3.2 0.00 0.03 0.03 63 1017.8
20260503001143 6 214 0.0 0.0 0.00 0.03 0.03 64 1017.6
20260503000641 6 219 0.0 3.2 0.00 0.03 0.03 64 1017.6
20260503000138 6 293 4.8 8.0 0.00 0.03 0.03 63 1017.6
20260502235634 6 218 0.0 3.2 0.00 0.03 0.03 62 1017.7
20260502235133 6 333 8.0 9.7 0.00 0.03 0.03 62 1017.6
20260502234628 6 264 3.2 8.0 0.00 0.03 0.03 62 1017.6
20260502234126 6 244 3.2 3.2 0.00 0.03 0.03 61 1017.7
20260502233622 6 295 3.2 9.7 0.00 0.03 0.03 61 1017.7
20260502233119 6 218 0.0 3.2 0.00 0.03 0.03 61 1017.3
20260502232614 7 325 4.8 4.8 0.00 0.03 0.03 60 1017.5
20260502232112 7 251 1.6 4.8 0.00 0.03 0.03 60 1017.5
20260502231609 7 221 1.6 8.0 0.00 0.03 0.03 59 1017.6
20260502231107 7 319 4.8 8.0 0.00 0.03 0.03 59 1017.7
20260502230605 7 237 3.2 12.9 0.00 0.03 0.03 59 1017.5
20260502225558 7 335 4.8 11.3 0.00 0.03 0.03 61 1017.6
20260502225055 7 278 4.8 11.3 0.00 0.03 0.03 61 1017.6
20260502224551 7 354 4.8 9.7 0.00 0.03 0.03 61 1017.6
20260502224049 7 331 6.4 9.7 0.00 0.03 0.03 60 1017.5
20260502223546 7 300 4.8 11.3 0.00 0.03 0.03 59 1017.6
20260502223045 7 339 4.8 11.3 0.00 0.03 0.03 58 1017.6
20260502222541 7 329 8.0 9.7 0.00 0.03 0.03 59 1017.4
20260502222037 7 339 11.3 14.5 0.00 0.03 0.03 60 1017.4
20260502221528 7 281 3.2 9.7 0.00 0.03 0.03 60 1017.6
20260502221025 7 352 4.8 9.7 0.00 0.03 0.03 60 1017.7
20260502220520 6 223 3.2 8.0 0.00 0.03 0.03 65 1017.6
20260502220018 6 216 0.0 0.0 0.00 0.03 0.03 70 1017.6
20260502215515 7 222 0.0 3.2 0.00 0.03 0.03 70 1017.5
20260502215012 6 215 0.0 0.0 0.00 0.03 0.03 70 1017.6
20260502214509 6 220 0.0 1.6 0.00 0.03 0.03 70 1017.5
20260502214006 6 204 0.0 1.6 0.00 0.03 0.03 72 1017.4
20260502213502 6 180 1.6 1.6 0.00 0.03 0.03 73 1017.5
20260502213001 6 178 1.6 1.6 0.00 0.03 0.03 73 1017.7
20260502212459 6 245 1.6 3.2 0.00 0.03 0.03 73 1017.5
20260502211956 6 197 1.6 4.8 0.00 0.03 0.03 73 1017.3
20260502211452 6 185 1.6 3.2 0.00 0.03 0.03 73 1017.3
20260502210950 6 207 1.6 1.6 0.00 0.03 0.03 73 1017.5
20260502210446 6 209 0.0 3.2 0.00 0.03 0.03 73 1017.4
20260502205943 6 212 0.0 1.6 0.00 0.03 0.03 75 1017.5
20260502205439 6 179 0.0 1.6 0.00 0.03 0.03 73 1017.4
20260502204937 6 105 3.2 4.8 0.00 0.03 0.03 72 1017.4
20260502204434 6 205 0.0 3.2 0.00 0.03 0.03 75 1017.4
20260502203932 6 105 3.2 4.8 0.00 0.03 0.03 75 1017.4
20260502203429 6 168 3.2 8.0 0.00 0.03 0.03 74 1017.3
20260502202924 6 203 0.0 3.2 0.13 0.03 0.03 74 1017.4
20260502202422 6 83 3.2 8.0 0.18 0.03 0.03 74 1017.6
20260502201920 6 99 4.8 8.0 0.05 0.00 0.00 75 1017.8
20260502201415 6 179 1.6 4.8 0.00 0.00 0.00 77 1017.4
20260502200913 6 30 1.6 4.8 0.00 0.00 0.00 78 1017.6
20260502200408 6 72 3.2 11.3 0.00 0.00 0.00 78 1017.5
20260502195906 6 61 4.8 16.1 0.00 0.00 0.00 76 1017.7
20260502195403 6 48 11.3 12.9 0.00 0.00 0.00 76 1017.8
20260502194859 6 90 4.8 12.9 0.00 0.00 0.00 75 1017.7
20260502194356 6 165 1.6 8.0 0.00 0.00 0.00 69 1017.7
20260502193852 6 63 4.8 9.7 0.00 0.00 0.00 67 1017.9
20260502193349 7 321 6.4 8.0 0.00 0.00 0.00 71 1017.9
20260502192844 6 177 1.6 4.8 0.00 0.00 0.00 70 1018.0
20260502192342 6 127 1.6 3.2 0.00 0.00 0.00 71 1018.0
20260502191839 6 141 1.6 4.8 0.00 0.00 0.00 72 1017.9
20260502191337 6 16 4.8 9.7 0.00 0.00 0.00 71 1017.8
20260502190834 6 20 4.8 8.0 0.00 0.00 0.00 72 1018.1
20260502190331 6 286 4.8 8.0 0.00 0.00 0.00 73 1018.1
20260502185827 6 60 4.8 9.7 0.00 0.00 0.00 74 1018.2
20260502185323 6 175 0.0 9.7 0.00 0.00 0.00 77 1018.4
20260502184820 6 98 1.6 8.0 0.00 0.00 0.00 76 1018.1
20260502184315 6 136 3.2 4.8 0.00 0.00 0.00 78 1018.1
20260502183812 6 79 1.6 9.7 0.00 0.00 0.00 79 1018.2
20260502183309 5 65 6.4 8.0 0.00 0.00 0.00 80 1018.4
20260502182803 6 58 4.8 9.7 0.00 0.00 0.00 79 1018.1
20260502182259 6 41 12.9 17.7 0.00 0.00 0.00 73 1018.2
20260502181755 6 257 6.4 11.3 0.00 0.00 0.00 64 1018.2
20260502181250 6 340 6.4 8.0 0.00 0.00 0.00 64 1018.2
20260502180746 6 233 3.2 11.3 0.00 0.00 0.00 65 1018.3
20260502180244 6 301 6.4 8.0 0.00 0.00 0.00 66 1018.4
20260502170202 5 86 8.0 9.7 0.00 0.00 0.00 78 1018.7
20260502164149 6 289 9.7 22.5 0.00 0.00 0.00 69 1018.6
20260502163644 6 263 6.4 12.9 0.00 0.00 0.00 69 1018.7
20260502163141 6 345 12.9 17.7 0.00 0.00 0.00 69 1018.7
20260502162638 6 7 6.4 16.1 0.00 0.00 0.00 70 1018.7
20260502162135 6 297 8.0 11.3 0.00 0.00 0.00 69 1018.8
20260502161632 6 232 6.4 12.9 0.00 0.00 0.00 69 1019.0
20260502161129 6 321 9.7 16.1 0.00 0.00 0.00 67 1018.9
20260502160627 6 299 6.4 11.3 0.00 0.00 0.00 69 1018.8
20260502160126 6 348 4.8 8.0 0.00 0.00 0.00 71 1019.1
20260502152045 5 352 6.4 9.7 0.00 0.00 0.00 78 1018.8
20260502151543 5 99 3.2 8.0 0.00 0.00 0.00 81 1019.0
20260502151040 5 348 4.8 8.0 0.00 0.00 0.00 82 1018.8
20260502150537 5 264 3.2 4.8 0.00 0.00 0.00 84 1018.9
20260502130416 3 299 4.8 9.7 0.00 0.00 0.00 89 1018.7
20260502123353 2 353 8.0 11.3 0.00 0.00 0.00 87 1018.3
20260502122850 2 295 6.4 9.7 0.00 0.00 0.00 87 1018.4
20260502122345 2 331 6.4 9.7 0.00 0.00 0.00 87 1018.4
20260502121839 2 347 8.0 16.1 0.00 0.00 0.00 87 1018.4
20260502121335 2 290 6.4 14.5 0.00 0.00 0.00 86 1018.4
20260502120833 2 285 8.0 11.3 0.00 0.00 0.00 86 1018.3
20260502120329 2 351 12.9 14.5 0.00 0.00 0.00 86 1018.1
20260502115827 1 324 6.4 9.7 0.00 0.00 0.00 86 1018.2
20260502115324 2 303 4.8 8.0 0.00 0.00 0.00 86 1018.3
20260502114820 1 212 1.6 4.8 0.00 0.00 0.00 86 1018.2
20260502114317 1 224 4.8 8.0 0.00 0.00 0.00 87 1018.1
20260502113814 1 230 3.2 9.7 0.00 0.00 0.00 88 1018.2
20260502113312 1 227 3.2 3.2 0.00 0.00 0.00 89 1018.3
20260502112810 1 221 0.0 1.6 0.00 0.00 0.00 89 1018.4
20260502112307 1 221 1.6 1.6 0.00 0.00 0.00 89 1018.3
20260502111804 1 234 3.2 3.2 0.00 0.00 0.00 90 1018.0
20260502111301 0 217 1.6 3.2 0.00 0.00 0.00 90 1018.0
20260502110759 0 224 1.6 1.6 0.00 0.00 0.00 91 1017.9
20260502110256 0 238 0.0 1.6 0.00 0.00 0.00 91 1017.9
20260502105754 0 224 0.0 3.2 0.00 0.00 0.00 91 1018.0
20260502105249 0 222 3.2 3.2 0.00 0.00 0.00 91 1017.6
20260502104748 0 217 0.0 3.2 0.00 0.00 0.00 91 1017.7
20260502104245 0 218 0.0 1.6 0.00 0.00 0.00 91 1017.5
20260502103742 0 220 1.6 1.6 0.00 0.00 0.00 90 1017.6
20260502103240 0 218 0.0 3.2 0.00 0.00 0.00 90 1017.7
20260502102738 0 231 3.2 3.2 0.00 0.00 0.00 90 1017.8
20260502102233 0 225 3.2 4.8 0.00 0.00 0.00 90 1017.8
20260502101732 0 236 3.2 4.8 0.00 0.00 0.00 90 1017.6
20260502101230 0 224 3.2 3.2 0.00 0.00 0.00 90 1017.7
20260502100728 0 228 1.6 3.2 0.00 0.00 0.00 90 1017.8
20260502100226 0 237 3.2 3.2 0.00 0.00 0.00 89 1017.5
20260502091200 1 228 1.6 3.2 0.00 0.00 0.00 86 1017.6
20260502090657 1 245 1.6 4.8 0.00 0.00 0.00 87 1017.6
20260502090154 1 213 0.0 1.6 0.00 0.00 0.00 87 1017.5
20260502071049 2 228 3.2 3.2 0.00 0.00 0.00 90 1017.2
20260502070547 2 223 1.6 1.6 0.00 0.00 0.00 90 1017.2
20260502070045 2 228 1.6 1.6 0.00 0.00 0.00 89 1017.2
20260502065543 2 221 1.6 1.6 0.00 0.00 0.00 90 1017.1
20260502065040 2 219 0.0 1.6 0.00 0.00 0.00 89 1017.2
20260502064539 2 219 0.0 1.6 0.00 0.00 0.00 88 1017.0
20260502064036 2 243 1.6 3.2 0.00 0.00 0.00 88 1017.1
20260502063534 2 252 3.2 4.8 0.00 0.00 0.00 88 1017.3
20260502063031 2 217 1.6 3.2 0.00 0.00 0.00 88 1017.1
20260502062528 2 234 1.6 3.2 0.00 0.00 0.00 88 1017.4
20260502062026 2 219 0.0 4.8 0.00 0.00 0.00 87 1017.2
20260502061524 2 222 1.6 3.2 0.00 0.00 0.00 88 1017.4
20260502061015 2 237 3.2 4.8 0.00 0.00 0.00 89 1017.3
20260502060510 3 228 1.6 1.6 0.00 0.00 0.00 90 1017.3
20260502060008 3 225 1.6 1.6 0.00 0.00 0.00 91 1017.3
20260502055504 3 229 1.6 3.2 0.00 0.00 0.00 91 1017.3
20260502055003 3 242 3.2 4.8 0.00 0.00 0.00 92 1017.4
20260502054501 3 222 1.6 3.2 0.00 0.00 0.00 93 1017.3
20260502053958 3 226 1.6 3.2 0.00 0.00 0.00 95 1017.4
20260502053455 3 226 3.2 4.8 0.00 0.00 0.00 96 1017.2
20260502052953 3 228 3.2 3.2 0.00 0.00 0.00 96 1017.3
20260502052451 3 239 1.6 3.2 0.00 0.00 0.00 97 1017.4
20260502051949 3 210 1.6 4.8 0.00 0.00 0.00 97 1017.3
20260502051447 3 226 3.2 4.8 0.00 0.00 0.00 98 1017.3
20260502050944 3 222 3.2 3.2 0.00 0.00 0.00 98 1017.2
20260502050440 3 213 1.6 3.2 0.00 0.00 0.00 98 1017.4
20260502045937 3 243 4.8 4.8 0.00 0.00 0.00 98 1017.3
20260502045434 3 226 3.2 3.2 0.00 0.00 0.00 98 1017.1
20260502044931 3 216 0.0 1.6 0.00 0.00 0.00 98 1017.1
20260502044427 3 225 3.2 3.2 0.00 0.00 0.00 97 1017.3
20260502043924 4 224 1.6 3.2 0.00 0.00 0.00 97 1017.3
20260502043422 4 217 1.6 3.2 0.00 0.00 0.00 97 1016.8
20260502042921 4 219 1.6 3.2 0.00 0.00 0.00 97 1017.2
20260502042419 4 223 1.6 1.6 0.00 0.00 0.00 97 1017.2
20260502041916 4 234 1.6 1.6 0.00 0.00 0.00 97 1017.2
20260502041414 4 221 3.2 3.2 0.00 0.00 0.00 97 1017.0
20260502040910 5 217 1.6 3.2 0.00 0.00 0.00 96 1017.0
20260502040407 5 220 0.0 1.6 0.00 0.00 0.00 96 1017.2
20260502035903 5 219 1.6 3.2 0.00 1.04 1.04 96 1017.3
20260502035359 5 219 1.6 1.6 0.00 1.04 1.04 96 1017.2
20260502034857 5 217 0.0 3.2 0.00 1.04 1.04 96 1017.2
20260502034355 5 241 3.2 3.2 0.00 1.04 1.04 96 1017.4
20260502033854 5 229 1.6 1.6 0.00 1.04 1.04 96 1017.3
20260502033351 5 225 3.2 3.2 0.00 1.04 1.04 96 1017.3
20260502032847 5 222 1.6 3.2 0.00 1.04 1.04 96 1017.2
20260502032343 5 239 3.2 3.2 0.00 1.04 1.04 96 1017.3
20260502031841 5 237 3.2 4.8 0.00 1.04 1.04 96 1017.2
20260502031340 5 230 3.2 4.8 0.00 1.04 1.04 96 1017.1
20260502030838 5 233 4.8 4.8 0.00 1.04 1.04 96 1016.8
20260502030336 5 224 1.6 1.6 0.00 1.04 1.04 96 1017.1
20260502025832 5 217 1.6 1.6 0.00 1.04 1.04 96 1016.8
20260502025330 5 225 1.6 1.6 0.00 1.04 1.04 96 1017.0
20260502024828 5 218 1.6 1.6 0.00 1.04 1.04 96 1016.7
20260502024325 5 220 0.0 1.6 0.00 1.04 1.04 96 1016.7
20260502023823 5 220 0.0 1.6 0.00 1.04 1.04 96 1016.8
20260502023321 5 218 0.0 1.6 0.00 1.04 1.04 96 1017.0
20260502022819 5 227 1.6 3.2 0.00 1.04 1.04 95 1016.6